Showing default

IRIDIUM 137, 43076

Orbit data source: Space-Track

IRIDIUM 137, 43076 is a payload satellite owned by Iridium (US) in LEO that was launched on Sat, 23 Dec 2017 UTC via an FALCON 9 launch vehicle from the Air Force Western Test Range (AFWTR). Payloads include a variety of satellites, spacecraft, and rockets equipped with specific instruments for various scientific and technological missions. These include communications satellites like Starlink; space stations such as the ISS; scientific satellites like the Hubble; Earth observation satellites from companies like Planet Labs, Umbra, and HawkEye 360; GPS; miniature CubeSats for education and research; and military/defense satellites.

Loading next visibility...
IRIDIUM 137 details
Identifier
43076, 2017-083G
Orbit
LEO
Last TLE update16 hours ago
Origin
Flag of USIridium (US)
ManufacturerOATK SSG Gilbert
MissionOperational Commercial Communications
Bus & MotorELITEBUS, Unknown motor
Mass860 kg wet, 700 kg dry
Launch date (UTC)
2017-12-23 (7 years ago)
Launch vehicle
FALCON 9
Launch site
Air Force Western Test Range (AFWTR)
Object type
Payload
Rocket body
Debris
Shape & HBRTrap Box + 2 Pan, 9.4 m
Radar Cross Section14.423 m², Large (>1 m²)

Expand to show TLE details & history

TLE from 16 hours ago
0 IRIDIUM 137
1 43076U 17083G   25023.89846360  .00000123  00000-0  36790-4 0  9990
2 43076  86.4015 174.9959 0002483  85.9067 274.2412 14.34217961371171
Epoch: 2025-01-23T21:33Z
Definitive object data (Epoch: 2025-01-23T21:33:47.255Z)
Latitude-0.00005°
Longitude88.07962°
Altitude780.586 km
Speed7.464 km/s
True Right ascension11h 39m 59s
True Declination0° 00' 00"
Sunlit
Object was in full shadow at TLE epoch
Visualization TLE readout
Latitude-81.17726°
Longitude64.02779°
Altitude807.712 km
Speed7.448 km/s
Apparent Right ascension04h 03m 49s
Apparent Declination-66° 49' 39"
Sunlit
Object is in daylight
Visualization observer readout
Local Sidereal Time15:11:39
Azimuth190.946° SSW
Elevation-62.119°
Doppler factor1
Orbital elements
Apogee altitude776.407 km
Perigee altitude772.855 km
Semi-major axis7,152.768 km
Eccentricity0.0002483
Inclination86.4015°
RAAN174.9959°
Arg. of periapsis85.9067°
True anomaly274.21282°
Mean anomaly274.2412°
Eccentric anomaly274.22701°
Mean motion3.58783 °/min
BSTAR0.00003679
Orbital period100.34 mins
Loading maneuver chart data...
Loading historical data...
Loading historical data...
Loading historical data...
Loading historical data...
Loading historical data...
Loading historical data...
Loading historical data...

IRIDIUM 137 Visibility forecast

Observer location: undefined°, undefined

Span
Click to sort rows by Start time (UTC) header in descending order
Start Az.
Max El. time (UTC)
Max El. Az.
Max El.
End time (UTC)
End Az.
9 mins2025-01-24 21:34:34.105Z11.062° NNE2025-01-24 21:39:34.105Z95.751° ESE35.634°2025-01-24 21:43:34.105Z154.602° SSE
5 mins2025-01-24 23:17:34.105Z307.443° NW2025-01-24 23:19:34.105Z279.35° WNW17.949°2025-01-24 23:22:34.105Z240.91° WSW
8 mins2025-01-25 10:31:34.105Z186.272° SSW2025-01-25 10:35:34.105Z325.704° NNW43.995°2025-01-25 10:39:34.105Z359.66° N
|